| time (UTC) | temp C | wind direction | speed KPH | gust KPH | rain 1hr cm | rain 24hr cm | rain mn cm | humidity % | barometer mb |
| 20260506130858 | 20 | 23 | 0.0 | 0.0 | 0.00 | 2.11 | 0.53 | 68 | 1005.5 |
| 20260506125841 | 20 | 23 | 0.0 | 6.4 | 0.00 | 2.11 | 0.53 | 68 | 1005.5 |
| 20260506124840 | 20 | 45 | 0.0 | 6.4 | 0.00 | 2.11 | 0.53 | 70 | 1005.5 |
| 20260506123811 | 20 | 23 | 0.0 | 1.6 | 0.00 | 2.11 | 0.53 | 73 | 1005.6 |
| 20260506122739 | 19 | 23 | 0.0 | 1.6 | 0.00 | 2.11 | 0.53 | 75 | 1005.6 |
| 20260506121718 | 19 | 315 | 1.6 | 0.0 | 0.00 | 2.11 | 0.53 | 73 | 1005.7 |
| 20260506120656 | 19 | 315 | 4.8 | 11.3 | 0.00 | 2.11 | 0.53 | 73 | 1005.8 |
| 20260506115622 | 19 | 23 | 4.8 | 8.0 | 0.00 | 2.11 | 0.53 | 72 | 1005.6 |
| 20260506114554 | 20 | 23 | 8.0 | 12.9 | 0.00 | 2.11 | 0.53 | 73 | 1005.6 |
| 20260506113538 | 20 | 338 | 8.0 | 17.7 | 0.00 | 2.11 | 0.53 | 72 | 1005.6 |
| 20260506112536 | 20 | 248 | 6.4 | 16.1 | 0.00 | 2.11 | 0.53 | 66 | 1005.7 |
| 20260506111506 | 20 | 338 | 4.8 | 11.3 | 0.00 | 2.11 | 0.53 | 71 | 1005.6 |
| 20260506110440 | 19 | 270 | 1.6 | 14.5 | 0.00 | 2.11 | 0.53 | 73 | 1005.8 |
| 20260506105359 | 18 | 315 | 6.4 | 17.7 | 0.00 | 2.11 | 0.53 | 74 | 1005.7 |
| 20260506104324 | 18 | 0 | 6.4 | 19.3 | 0.00 | 2.11 | 0.53 | 73 | 1005.8 |
| 20260506103252 | 17 | 0 | 0.0 | 19.3 | 0.00 | 2.11 | 0.53 | 77 | 1005.9 |
| 20260506102219 | 17 | 0 | 0.0 | 0.0 | 0.00 | 2.11 | 0.53 | 78 | 1005.8 |
| 20260506101153 | 17 | 0 | 0.0 | 6.4 | 0.00 | 2.11 | 0.53 | 79 | 1006.0 |
| 20260506100157 | 17 | 0 | 3.2 | 11.3 | 0.00 | 2.11 | 0.53 | 79 | 1005.9 |
| 20260506094025 | 18 | 315 | 6.4 | 11.3 | 0.00 | 2.11 | 0.53 | 77 | 1005.8 |
| 20260506092958 | 18 | 338 | 4.8 | 14.5 | 0.00 | 2.11 | 0.53 | 80 | 1005.7 |
| 20260506091932 | 17 | 0 | 6.4 | 14.5 | 0.00 | 2.11 | 0.53 | 78 | 1005.7 |
| 20260506090906 | 17 | 0 | 6.4 | 12.9 | 0.00 | 2.11 | 0.53 | 78 | 1005.7 |